Find Starlink 36685

NORAD ID: 68717 Int'l Des: 2026-081 Owner: SPXS Country: US Constellation: starlink operational
LEOCIRCULAR

Current View

Loading 3D Globe...

About Starlink 36685

Description loading...

Upcoming Passes

Passes for default location (London). Set your location on the main map for personalized predictions.

Altitude History

Loading altitude history...

Two-Line Element Set

1 68717U 26081U 26151.04487264 .00033708 00000-0 97297-3 0 9994
2 68717 53.1589 11.4249 0001202 81.6605 278.4534 15.35397954 7353
Epoch: May 31, 2026 • Age: 8 hours

Current Status

Altitude 459.5 km
Velocity 7.64 km/s
Sub-Earth Point 12.98°N, 3.48°W
Launch Date Apr 14, 2026
Age 0.1 years
Type internet

Technical Details

Classification Payload
Mass 575.00 kg
Dry Mass 530.00 kg
Total Mass 575.00 kg
Length 0.30 m
Diameter 4.10 m
Span 29.00 m
Shape Box + pan
Manufacturer SPXS
Bus Type Starlink V2MO
Phase Status In Orbit
Owner/State SPXS/US

Most Searched